Back to catalog

EUTE 36A

EUTE W4

AliveCommunicationsGEO
NORAD 26369·PAYLOAD·🇪🇺 EU

Launched May 24, 2000 from Cape Canaveral Space Force Station

Loading…

TLE

FreshSource: Space-Track

Epoch: Sep 14, 2026, 13:56 UTC

1 26369U 00028A   26257.58073288 -.00000230  00000-0  00000-0 0  9995
2 26369   8.8025  60.9204 0008271 256.6065  49.3454  0.98472276 96009

Track EUTE 36A in real time with AllMySat

Download on the App Store